Location: ???
(35.5616°N, 139.7977°E)
Time: 20:12:25
(UTC+00:00)

Cosmos 1954 Rocket - Pass Details

Date: 17 November 2025
Orbit: 748 x 776 km, 74.0° (Epoch: 08 December)

Event Time Altitude Azimuth Distance (km) Brightness Sun altitude
Exits shadow 19:16:10 48° 348° (NNW) 978 4.3 -24.9°
Maximum altitude 19:17:39 86° 73° (ENE) 757 3.9 -24.6°
Drops below altitude 10° 19:22:46 10° 162° (SSE) 2,258 6.7 -23.6°
Sets 19:25:07 0° 163° (SSE) 3,178 7.5 -23.1°
